[[{"header":{"parameterUnit":"m.s-1","parameterCategory":1,"la1":30.2991,"la2":30.254,"lo1":-89.0895,"lo2":-89.0444,"dy":0.0017,"dx":0.0017,"nx":28,"ny":28,"refTime":"2024-05-23T21:00:00:Z","depth":0,"parameterNumber":2,"parameterNumberName":"U-component_of_WINDS"},"data":[0,0,0,0,0,0,0,0,0,0,0,0,0,0,0,0,0,0,0,0,0,0,0,0,0,0,0,0,0,0,0,0,0,0,0,0,0,0,0,0,0,0,0,0,0,0,0,0,0,0,0,0,0,0,0,0,0,0,-1.3792,-1.3792,0,-1.3834,-1.3835,-1.3835,-1.3847,-1.3847,-1.3847,-1.3847,-1.3892,-1.3893,-1.3895,0,0,0,0,0,0,0,0,0,0,0,0,0,-1.3724,-1.3725,-1.3791,-1.3792,-1.3793,-1.3834,-1.3835,-1.3835,-1.3847,-1.3847,-1.3847,-1.3847,-1.3892,-1.3893,-1.3895,0,0,0,0,0,0,0,0,0,0,0,0,0,-1.3758,-1.3725,-1.3791,-1.3804,-1.3805,-1.3834,-1.3835,-1.3835,-1.3848,-1.3847,-1.3847,-1.3846,-1.3891,-1.3893,-1.3895,-1.3915,0,0,-1.3902,-1.3903,0,0,0,0,0,0,0,0,-1.3756,-1.3761,-1.3801,-1.3803,-1.3805,-1.3835,-1.3827,-1.3862,-1.3848,-1.3831,-1.3847,-1.3846,-1.3874,-1.3877,-1.3886,-1.3918,-1.392,-1.3902,-1.3903,-1.3904,-1.3905,0,0,0,0,0,0,0,-1.3754,-1.3759,-1.3808,-1.3802,-1.3804,-1.3808,-1.3812,-1.3834,-1.3854,-1.3833,-1.3834,-1.3839,-1.3874,-1.3884,-1.3887,-1.392,-1.3902,-1.3904,-1.3905,-1.3906,-1.3972,-1.3973,0,0,0,0,0,0,-1.3749,-1.3757,-1.3807,-1.381,-1.3779,-1.3809,-1.3815,-1.3826,-1.3854,-1.3858,-1.3839,-1.3839,-1.388,-1.3885,-1.3889,-1.3915,-1.3904,-1.3906,-1.3907,-1.3972,-1.3972,-1.3973,0,0,0,0,0,0,-1.3748,-1.3753,-1.3805,-1.3784,-1.3791,-1.3811,-1.3823,-1.3827,-1.3836,-1.3858,-1.3862,-1.3845,-1.388,-1.3886,-1.3909,-1.3916,-1.3907,-1.3909,-1.3971,-1.3972,-1.3973,-1.3967,0,0,0,0,0,0,-1.3746,-1.3753,-1.376,-1.3784,-1.3792,-1.3824,-1.3824,-1.3828,-1.384,-1.384,-1.3865,-1.3869,-1.388,-1.3906,-1.3911,-1.3919,-1.3911,-1.3971,-1.3971,-1.3972,-1.3966,-1.3967,-1.3968,0,0,0,0,0,-1.3743,-1.3757,-1.376,-1.3766,-1.3801,-1.3824,-1.3829,-1.3842,-1.384,-1.3848,-1.3863,-1.3868,-1.3915,-1.3908,-1.3914,-1.3923,-1.397,-1.3971,-1.3972,-1.3966,-1.3967,-1.3968,0,0,0,0,0,0,-1.3734,-1.376,-1.3764,-1.3786,-1.3803,-1.3826,-1.3836,-1.3842,-1.386,-1.386,-1.3876,-1.3882,-1.3904,-1.3916,-1.3908,-1.3945,-1.3943,-1.3945,-1.3936,-1.3937,-1.3938,-1.3934,-1.3913,0,0,0,0,0,-1.3734,-1.375,-1.3773,-1.3789,-1.3798,-1.3816,-1.3826,-1.3835,-1.3853,-1.3861,-1.3877,-1.3895,-1.3914,-1.3926,-1.3945,-1.3968,-1.3975,-1.3978,-1.3979,-1.3979,-1.3981,-1.3995,-1.3997,-1.3976,-1.3976,-1.3976,0,0,-1.3735,-1.3751,-1.376,-1.3788,-1.3802,-1.3819,-1.3821,-1.3839,-1.3853,-1.3864,-1.3886,-1.3899,-1.3921,-1.3944,-1.3955,-1.3955,-1.3988,-1.3981,-1.3981,-1.3982,-1.3996,-1.3998,-1.4,-1.3977,-1.3977,-1.3977,0,0,-1.3745,-1.3759,-1.3775,-1.3789,-1.381,-1.3822,-1.3826,-1.385,-1.3858,-1.3881,-1.389,-1.3907,-1.3939,-1.3955,-1.3967,-1.3985,-1.399,-1.399,-1.3994,-1.4008,-1.401,-1.4011,-1.4018,-1.402,-1.3992,-1.3992,-1.3992,0,-1.3744,-1.3769,-1.3782,-1.38,-1.3812,-1.3823,-1.384,-1.3853,-1.388,-1.3889,-1.3888,-1.3929,-1.3945,-1.3972,-1.3977,-1.3986,-1.3992,-1.3987,-1.4008,-1.401,-1.4011,-1.4018,-1.4021,-1.3992,-1.3992,-1.3992,-1.3992,0,-1.3766,-1.3784,-1.3795,-1.382,-1.3833,-1.385,-1.3867,-1.388,-1.3888,-1.39,-1.3925,-1.3944,-1.3967,-1.3974,-1.3982,-1.4003,-1.4003,-1.4005,-1.4003,-1.4013,-1.402,-1.4022,-1.3992,-1.3992,-1.3992,-1.3992,0,0,-1.3771,-1.3804,-1.3807,-1.3819,-1.3844,-1.3859,-1.3877,-1.39,-1.391,-1.3929,-1.3945,-1.3973,-1.3976,-1.3989,-1.3999,-1.4011,-1.4025,-1.4012,-1.4013,-1.4014,-1.4051,-1.4049,-1.4051,-1.4029,-1.403,-1.403,-1.4049,0,-1.3784,-1.3816,-1.383,-1.3856,-1.3873,-1.3884,-1.3901,-1.3918,-1.3931,-1.3948,-1.3963,-1.3982,-1.3984,-1.3992,-1.4005,-1.4021,-1.4033,-1.402,-1.4045,-1.4046,-1.4039,-1.4055,-1.4052,-1.4069,-1.4052,-1.4052,-1.4052,0,-1.3804,-1.3822,-1.385,-1.3874,-1.3882,-1.3896,-1.3918,-1.3934,-1.3955,-1.3964,-1.398,-1.3989,-1.401,-1.4008,-1.4037,-1.4028,-1.404,-1.405,-1.4051,-1.4053,-1.4049,-1.4058,-1.4074,-1.4077,-1.4056,-1.4056,-1.4056,0,-1.3804,-1.3836,-1.3857,-1.3867,-1.3896,-1.3906,-1.3918,-1.3939,-1.3952,-1.3972,-1.398,-1.4003,-1.4015,-1.4032,-1.4048,-1.4045,-1.4077,-1.4075,-1.4085,-1.4085,-1.4091,-1.409,-1.4109,-1.4099,-1.4099,-1.4099,-1.4098,0,-1.3818,-1.3835,-1.3858,-1.3871,-1.3891,-1.3906,-1.3926,-1.3939,-1.3958,-1.3974,-1.3986,-1.4002,-1.4022,-1.404,-1.4053,-1.4076,-1.4082,-1.409,-1.4093,-1.4088,-1.4087,-1.4096,-1.4095,-1.4099,-1.4099,-1.4099,-1.4099,0,-1.3822,-1.3838,-1.3862,-1.3887,-1.3894,-1.3907,-1.3929,-1.3943,-1.3956,-1.3977,-1.3983,-1.4005,-1.4028,-1.4045,-1.4075,-1.4083,-1.4108,-1.4111,-1.41,-1.4102,-1.4111,-1.411,-1.4136,-1.414,-1.4127,-1.4127,-1.4127,0,-1.3829,-1.3842,-1.3869,-1.3881,-1.3893,-1.3911,-1.3925,-1.3942,-1.3955,-1.3981,-1.3992,-1.4015,-1.4034,-1.407,-1.4089,-1.4112,-1.4116,-1.4124,-1.412,-1.4115,-1.4117,-1.4115,-1.4117,-1.4124,-1.4124,-1.4124,-1.4124,0,-1.3841,-1.3848,-1.3867,-1.3888,-1.3904,-1.3922,-1.394,-1.3949,-1.397,-1.3985,-1.4007,-1.4022,-1.4053,-1.4076,-1.4101,-1.4115,-1.4124,-1.4126,-1.4129,-1.4125,-1.4118,-1.4122,-1.4102,-1.4125,-1.4125,-1.4125,-1.4125,-1.4125,-1.3847,-1.3859,-1.388,-1.3901,-1.3916,-1.3933,-1.3947,-1.3963,-1.3982,-1.4007,-1.4017,-1.404,-1.4063,-1.4097,-1.4112,-1.4131,-1.4132,-1.4137,-1.4138,-1.4139,-1.4138,-1.4115,-1.4136,-1.4136,-1.4136,-1.4136,-1.4136,0,-1.3859,-1.3873,-1.3892,-1.3917,-1.3934,-1.394,-1.3961,-1.3974,-1.3995,-1.4014,-1.4033,-1.406,-1.4083,-1.4104,-1.4129,-1.414,-1.4145,-1.4146,-1.4145,-1.4149,-1.4136,-1.4131,-1.4142,-1.4142,-1.4142,-1.4142,-1.4142,-1.4142,-1.3868,-1.3889,-1.39,-1.393,-1.3944,-1.3967,-1.3978,-1.3995,-1.401,-1.404,-1.4059,-1.4072,-1.4093,-1.4119,-1.4141,-1.4146,-1.4155,-1.4155,-1.4162,-1.415,-1.4149,-1.4148,-1.4143,-1.4157,-1.4157,-1.4173,-1.4173,-1.4173]},{"header":{"parameterUnit":"m.s-1","parameterCategory":1,"la1":30.2991,"la2":30.254,"lo1":-89.0895,"lo2":-89.0444,"dy":0.0017,"dx":0.0017,"nx":28,"ny":28,"refTime":"2024-05-23T21:00:00:Z","depth":0,"parameterNumber":3,"parameterNumberName":"V-component_of_WINDS"},"data":[0,0,0,0,0,0,0,0,0,0,0,0,0,0,0,0,0,0,0,0,0,0,0,0,0,0,0,0,0,0,0,0,0,0,0,0,0,0,0,0,0,0,0,0,0,0,0,0,0,0,0,0,0,0,0,0,0,0,5.7994,5.7994,0,5.8018,5.8019,5.8019,5.7994,5.7993,5.7992,5.7991,5.8014,5.8015,5.8016,0,0,0,0,0,0,0,0,0,0,0,0,0,5.7921,5.7923,5.7994,5.7994,5.7994,5.8018,5.8019,5.8019,5.7994,5.7993,5.7992,5.7991,5.8013,5.8015,5.8017,0,0,0,0,0,0,0,0,0,0,0,0,0,5.795,5.7923,5.7994,5.7985,5.7984,5.8018,5.8019,5.8019,5.7995,5.7993,5.7992,5.799,5.8012,5.8015,5.8017,5.806,0,0,5.8024,5.8025,0,0,0,0,0,0,0,0,5.7949,5.7953,5.7986,5.7986,5.7985,5.8002,5.8001,5.8033,5.7995,5.7991,5.7991,5.799,5.8011,5.8013,5.8021,5.8061,5.8062,5.8024,5.8025,5.8026,5.8027,0,0,0,0,0,0,0,5.7947,5.7952,5.8003,5.7986,5.7986,5.7979,5.7981,5.8007,5.8008,5.7991,5.7989,5.7993,5.801,5.8019,5.8021,5.8062,5.8024,5.8026,5.8027,5.8028,5.8138,5.814,0,0,0,0,0,0,5.7946,5.795,5.8003,5.8004,5.7963,5.7981,5.7984,5.7998,5.8008,5.8008,5.7994,5.7991,5.8015,5.8018,5.8022,5.8072,5.8026,5.8028,5.803,5.8137,5.8139,5.814,0,0,0,0,0,0,5.7945,5.7951,5.8002,5.7977,5.7983,5.7984,5.8,5.7999,5.8008,5.801,5.801,5.8002,5.8014,5.8018,5.8051,5.8073,5.8029,5.8031,5.8135,5.8137,5.8139,5.8175,0,0,0,0,0,0,5.7943,5.7951,5.7968,5.7977,5.7984,5.8031,5.8001,5.8001,5.8012,5.8009,5.8018,5.8018,5.8014,5.8047,5.8053,5.8075,5.8033,5.8133,5.8136,5.8139,5.8171,5.8178,5.8183,0,0,0,0,0,5.794,5.7976,5.7969,5.7975,5.8006,5.8033,5.8036,5.8031,5.8014,5.803,5.8032,5.8018,5.807,5.8051,5.8057,5.808,5.8131,5.8135,5.8138,5.8169,5.8177,5.8183,0,0,0,0,0,0,5.7968,5.7977,5.7969,5.8009,5.802,5.8028,5.8049,5.8039,5.8055,5.8051,5.8043,5.8045,5.8079,5.8083,5.8062,5.8122,5.8098,5.8102,5.8119,5.8126,5.8132,5.813,5.8035,0,0,0,0,0,5.7979,5.8001,5.8007,5.8042,5.8048,5.8048,5.8059,5.8054,5.8065,5.8069,5.8073,5.8083,5.8102,5.8114,5.8131,5.8172,5.8173,5.8191,5.8197,5.8202,5.8206,5.8227,5.8235,5.8152,5.8152,5.8152,0,0,5.8001,5.8009,5.8023,5.8048,5.8056,5.8078,5.8052,5.8076,5.8092,5.8073,5.8104,5.8107,5.8117,5.8154,5.817,5.8158,5.8229,5.8206,5.821,5.8212,5.8232,5.824,5.8247,5.8154,5.8154,5.8154,0,0,5.8053,5.8062,5.8092,5.81,5.8113,5.8113,5.812,5.813,5.8132,5.8163,5.8148,5.8167,5.8199,5.8207,5.8215,5.8271,5.8258,5.8276,5.8308,5.8329,5.8335,5.8341,5.8361,5.8368,5.8281,5.8281,5.8281,0,5.8079,5.8113,5.8108,5.8134,5.8145,5.8129,5.8159,5.8167,5.8184,5.8192,5.8178,5.8218,5.8224,5.8262,5.8276,5.8283,5.8291,5.8275,5.8335,5.8341,5.8346,5.8364,5.8372,5.8283,5.8283,5.8282,5.8282,0,5.8144,5.8168,5.819,5.8209,5.8222,5.825,5.8248,5.8262,5.8256,5.8256,5.8288,5.8295,5.8313,5.8322,5.8315,5.8359,5.8351,5.8336,5.8311,5.8356,5.8373,5.838,5.8286,5.8285,5.8285,5.8284,0,0,5.8214,5.823,5.8238,5.8247,5.826,5.8278,5.8304,5.8323,5.8335,5.8347,5.8369,5.8397,5.8383,5.8393,5.8387,5.8406,5.8449,5.8388,5.8389,5.8399,5.8497,5.8508,5.8517,5.8441,5.8442,5.8443,5.8496,0,5.8267,5.8315,5.8311,5.8355,5.8377,5.8362,5.8385,5.8395,5.8396,5.8414,5.8415,5.8434,5.8415,5.8421,5.8439,5.844,5.8469,5.8436,5.846,5.8461,5.8458,5.8526,5.8538,5.8587,5.8503,5.8504,5.8505,0,5.8335,5.8351,5.8398,5.8408,5.8417,5.8438,5.8455,5.8472,5.8483,5.8482,5.8494,5.8485,5.851,5.8485,5.852,5.8498,5.8508,5.851,5.8512,5.8514,5.8486,5.8529,5.8603,5.861,5.8516,5.8515,5.8514,0,5.8381,5.8415,5.8447,5.8455,5.8467,5.8482,5.8488,5.8497,5.8509,5.8523,5.8531,5.8547,5.8557,5.8569,5.8565,5.8547,5.8601,5.8575,5.8601,5.8601,5.8612,5.8612,5.8689,5.8619,5.8619,5.8619,5.8618,0,5.8441,5.847,5.8468,5.8488,5.852,5.8515,5.8546,5.855,5.8559,5.8578,5.8566,5.8584,5.8578,5.8596,5.8592,5.8622,5.8626,5.8626,5.8624,5.8627,5.8627,5.8633,5.8629,5.8621,5.862,5.862,5.8619,0,5.8498,5.8498,5.8533,5.8542,5.8545,5.8568,5.8576,5.8594,5.8594,5.8619,5.8625,5.8625,5.8646,5.8643,5.8665,5.8663,5.8699,5.8694,5.8696,5.8695,5.872,5.8718,5.8803,5.8814,5.8738,5.8738,5.8739,0,5.8536,5.8558,5.857,5.8583,5.859,5.8611,5.8623,5.8618,5.8631,5.8645,5.8662,5.8681,5.8696,5.8729,5.8731,5.8748,5.8743,5.8772,5.8745,5.8747,5.8743,5.8742,5.8744,5.8777,5.8778,5.8778,5.8779,0,5.8603,5.8602,5.8621,5.8639,5.8654,5.8668,5.8681,5.8692,5.8688,5.8703,5.8724,5.8736,5.876,5.8779,5.8795,5.8799,5.8789,5.8787,5.8794,5.8797,5.8797,5.8797,5.871,5.8785,5.8785,5.8784,5.8784,5.8784,5.8652,5.8671,5.8683,5.8703,5.8713,5.8725,5.8743,5.8746,5.8764,5.8783,5.8779,5.8803,5.8812,5.8833,5.8839,5.8857,5.8847,5.8856,5.8859,5.8861,5.8864,5.8794,5.886,5.886,5.886,5.886,5.8859,0,5.8718,5.8725,5.8744,5.8763,5.8779,5.8769,5.8782,5.8796,5.8818,5.8828,5.8844,5.8868,5.8887,5.889,5.8908,5.8921,5.8917,5.8926,5.8925,5.8926,5.8873,5.8865,5.893,5.893,5.893,5.893,5.893,5.893,5.8755,5.8787,5.8787,5.8823,5.8829,5.8854,5.8862,5.8873,5.8882,5.891,5.8926,5.8928,5.8935,5.8953,5.897,5.897,5.8977,5.8988,5.8987,5.8937,5.893,5.8923,5.8916,5.899,5.899,5.9039,5.9039,5.9039]}]]